Погода в Витории

Бразилия     20°17′00″S   40°17′57″W
темп.,
°C
ветер,
м/с
пор.,
м/с
влажн.,
%
обл.,
%
осадки,
мм/ч
давл.,
гПа
погр.,
м
8 декабря, ср
ср800:00+22юз469042 0.2 1012387
03:00+21юз46897 0.2 1010356
06:00+21юз588654 0.0 1011475
09:00+24ююз697410 0.0 1013751
12:00+25ю887098 0.0 1012857
15:00+23ю81078100 0.0 1011662
18:00+22ююз698190 0.0 1013660
21:00+22юз5782100 0.1 1014519
9 декабря, чт
чт900:00+20юз4592100 2.4 1013294
03:00+20юз4591100 5.3 1012360
06:00+20ююз5890100 1.8 1012452
09:00+21ююз468674 1.9 1013469
12:00+23ю577999 0.0 1013587
15:00+24ю667339 0.0 1012923
18:00+24ю567748 0.1 1012747
21:00+23ююз458122 0.1 1014518
10 декабря, пт
пт1000:00+22юз45851 0.0 1013367
03:00+21юз34860 0.0 1012251
06:00+21юз34856 0.0 1013259
09:00+24ю33711 0.0 1013623
12:00+25юв437357 0.0 1012848
15:00+24юв3374100 0.0 1010639
18:00+24вюв237393 0.0 1011596
21:00+24в127599 0.1 1013381
11 декабря, сб
сб1100:00+23сз117983 0.1 1011232
03:00+22зсз21853 0.1 1010107
06:00+22сз22830 0.0 1011135
09:00+26ссв24705 0.0 1012585
12:00+28всв667014 0.0 1010844
15:00+27всв777423 0.2 1008722
18:00+24св579073 1.4 1009324
21:00+24с4892100 2.9 1011374
12 декабря, вс
вс1200:00+24с48947 0.0 1010352
03:00+23с4791100 0.0 1009273
06:00+23с479099 0.0 1010245
09:00+28с586986 0.0 1011559
12:00+30ссв7964100 0.0 1009807
15:00+28св897197 0.0 1008877
18:00+26св8118342 0.0 1009481
21:00+25с51185100 0.0 1011633